Change the Weather History Date:

Saturday, January 25, 2014

  Actual Average Record
Temperature  
Mean Temperature 18 °F -  
Max Temperature 30 °F 32 °F 64 °F (1950)
Min Temperature 6 °F 13 °F -14 °F (1961)
Degree Days  
Heating Degree Days 47    
Moisture  
Dew Point 13 °F    
Average Humidity 73    
Maximum Humidity 93    
Minimum Humidity 51    
Precipitation  
Precipitation 0.02 in - - ()
Sea Level Pressure  
Sea Level Pressure 29.57 in    
Wind  
Wind Speed 17 mph (West)    
Max Wind Speed 28 mph    
Max Gust Speed 36 mph    
Visibility 5 miles    
Events Snow    
Averages and records for this station are not official NWS values.
T = Trace of Precipitation, MM = Missing Value Source: NWS Daily Summary

Daily Weather History Graph

Daily Weather History Graph

Search for Another Location

Airport or City:

Trip Planner

Search our weather history database for the weather conditions in past years. The results will help you decide how hot, cold, wet, or windy it might be!

Date:

Astronomy

Jan. 25, 2014 Rise Set
Actual Time 8:00 AM EST 5:51 PM EST
Civil Twilight 7:31 AM EST 6:20 PM EST
Nautical Twilight 6:57 AM EST 6:54 PM EST
Astronomical Twilight 6:24 AM EST 7:27 PM EST
Moon 2:31 AM EST (1/25) 12:51 PM EST (1/25)
Length of Visible Light 10h 49m
Length of Day
9h 50m
Waning Crescent, 34% of the Moon is Illuminated
Jan 25
Waning Crescent
Jan 30
New
Feb 6
First Quarter
Feb 14
Full
Feb 22
Last Quarter

Hourly Weather History & Observations

Time (EST) Temp. Windchill Dew Point Humidity Pressure Visibility Wind Dir Wind Speed Gust Speed Precip Events Conditions
12:15 AM 21.2 °F 7.3 °F 17.6 °F 86% 29.59 in 1.2 mi SW 16.1 mph 24.2 mph N/A Snow Light Snow
12:35 AM 21.2 °F 6.8 °F 17.6 °F 86% 29.57 in 1.8 mi SW 17.3 mph 28.8 mph N/A Snow Light Snow
12:55 AM 21.2 °F 7.8 °F 17.6 °F 86% 29.56 in 1.2 mi SW 15.0 mph 25.3 mph N/A Snow Light Snow
1:15 AM 21.2 °F 7.8 °F 17.6 °F 86% 29.54 in 1.2 mi SW 15.0 mph 25.3 mph N/A Snow Light Snow
1:35 AM 21.2 °F 7.8 °F 17.6 °F 86% 29.52 in 1.5 mi SW 15.0 mph 24.2 mph N/A Snow Light Snow
1:55 AM 21.2 °F 7.3 °F 17.6 °F 86% 29.51 in 3.0 mi SW 16.1 mph 24.2 mph N/A Snow Light Snow
2:15 AM 21.2 °F 8.3 °F 17.6 °F 86% 29.50 in 3.0 mi SW 13.8 mph 26.5 mph N/A Snow Light Snow
2:35 AM 21.2 °F 8.3 °F 19.4 °F 93% 29.48 in 2.5 mi SW 13.8 mph 26.5 mph N/A Snow Light Snow
2:55 AM 23.0 °F 9.6 °F 19.4 °F 86% 29.47 in 2.0 mi WSW 16.1 mph 24.2 mph 0.01 in Snow Light Snow
3:15 AM 23.0 °F 10.6 °F 19.4 °F 86% 29.46 in 1.2 mi SW 13.8 mph 20.7 mph N/A Snow Light Snow
3:35 AM 23.0 °F 11.1 °F 21.2 °F 93% 29.45 in 2.0 mi WSW 12.7 mph 27.6 mph N/A Snow Light Snow
3:55 AM 23.0 °F 10.6 °F 21.2 °F 93% 29.44 in 1.8 mi SW 13.8 mph 24.2 mph N/A Snow Light Snow
4:15 AM 23.0 °F 10.6 °F 21.2 °F 93% 29.43 in 1.8 mi WSW 13.8 mph 23.0 mph N/A Snow Light Snow
4:35 AM 24.8 °F 10.3 °F 23.0 °F 93% 29.42 in 1.5 mi WSW 20.7 mph 26.5 mph 0.01 in Snow Light Snow
4:55 AM 24.8 °F 10.3 °F 23.0 °F 93% 29.41 in 2.0 mi SW 20.7 mph 26.5 mph 0.01 in Snow Light Snow
5:15 AM 26.6 °F 12.7 °F 23.0 °F 86% 29.41 in 2.5 mi WSW 20.7 mph 27.6 mph N/A Snow Light Snow
5:35 AM 26.6 °F 13.4 °F 23.0 °F 86% 29.40 in 3.0 mi WSW 18.4 mph 25.3 mph N/A Snow Light Snow
5:55 AM 26.6 °F 14.3 °F 23.0 °F 86% 29.39 in 2.5 mi WSW 16.1 mph 26.5 mph N/A Snow Light Snow
6:15 AM 26.6 °F 14.3 °F 23.0 °F 86% 29.38 in 4.0 mi WSW 16.1 mph 23.0 mph N/A Snow Light Snow
6:35 AM 26.6 °F 14.7 °F 24.8 °F 93% 29.38 in 3.0 mi WSW 15.0 mph 21.9 mph N/A   Overcast
6:55 AM 28.4 °F 17.5 °F 26.6 °F 93% 29.38 in 4.0 mi WSW 13.8 mph - N/A   Overcast
7:15 AM 28.4 °F 17.0 °F 26.6 °F 93% 29.38 in 2.5 mi WSW 15.0 mph 20.7 mph N/A Snow Light Snow
7:35 AM 28.4 °F 17.5 °F 26.6 °F 93% 29.38 in 5.0 mi WSW 13.8 mph 18.4 mph N/A Snow Light Snow
7:55 AM 30.2 °F 18.5 °F 28.4 °F 93% 29.40 in 4.0 mi WNW 17.3 mph 29.9 mph N/A Snow Light Snow
8:15 AM 28.4 °F 16.2 °F 23.0 °F 80% 29.41 in 10.0 mi WNW 17.3 mph 23.0 mph N/A   Scattered Clouds
8:35 AM 28.4 °F 16.2 °F 21.2 °F 74% 29.42 in 10.0 mi WNW 17.3 mph 20.7 mph N/A   Clear
8:55 AM 28.4 °F 18.0 °F 21.2 °F 74% 29.42 in 10.0 mi WNW 12.7 mph - N/A   Mostly Cloudy
9:15 AM 28.4 °F 16.2 °F 21.2 °F 74% 29.42 in 10.0 mi WNW 17.3 mph - N/A   Overcast
9:35 AM 28.4 °F 15.4 °F 21.2 °F 74% 29.42 in 3.0 mi WNW 19.6 mph 27.6 mph N/A Snow Light Snow
9:55 AM 28.4 °F 14.1 °F 19.4 °F 69% 29.43 in 5.0 mi NW 24.2 mph 32.2 mph N/A   Haze
10:15 AM 26.6 °F 11.7 °F 14.0 °F 59% 29.44 in 5.0 mi WNW 24.2 mph 29.9 mph N/A   Haze
10:35 AM 28.4 °F 14.4 °F 12.2 °F 51% 29.45 in 5.0 mi WNW 23.0 mph 32.2 mph N/A   Haze
10:55 AM 26.6 °F 13.4 °F 12.2 °F 55% 29.45 in 5.0 mi NW 18.4 mph 28.8 mph N/A   Haze
11:15 AM 26.6 °F 11.4 °F 14.0 °F 59% 29.47 in 2.5 mi NW 25.3 mph 33.4 mph N/A   Haze
11:35 AM 24.8 °F 11.9 °F 14.0 °F 64% 29.48 in 3.0 mi NW 16.1 mph 28.8 mph N/A   Haze
11:55 AM 23.0 °F 9.6 °F 14.0 °F 68% 29.50 in 3.0 mi NW 16.1 mph 31.1 mph N/A   Haze
12:15 PM 23.0 °F 7.2 °F 12.2 °F 63% 29.51 in 2.5 mi NW 23.0 mph 33.4 mph N/A   Haze
12:35 PM 23.0 °F 10.6 °F 10.4 °F 59% 29.52 in 7.0 mi NW 13.8 mph 27.6 mph N/A   Overcast
12:55 PM 23.0 °F 6.9 °F 10.4 °F 59% 29.52 in 4.0 mi NW 24.2 mph 35.7 mph N/A   Haze
1:15 PM 23.0 °F 8.3 °F 10.4 °F 59% 29.52 in 4.0 mi NW 19.6 mph 29.9 mph N/A   Haze
1:35 PM 21.2 °F 4.2 °F 10.4 °F 63% 29.53 in 4.0 mi WNW 25.3 mph 32.2 mph N/A   Haze
1:55 PM 23.0 °F 6.9 °F 10.4 °F 59% 29.55 in 7.0 mi WNW 24.2 mph 29.9 mph N/A   Scattered Clouds
2:15 PM 19.4 °F 4.5 °F 15.8 °F 86% 29.56 in 0.5 mi NW 17.3 mph 31.1 mph N/A Snow Light Snow
2:35 PM 19.4 °F 2.8 °F 14.0 °F 80% 29.57 in 0.5 mi WNW 21.9 mph 26.5 mph N/A Snow Snow
2:55 PM 19.4 °F 2.5 °F 12.2 °F 74% 29.58 in 0.8 mi NW 23.0 mph 29.9 mph N/A   Haze
3:15 PM 19.4 °F 5.5 °F 12.2 °F 74% 29.59 in 1.2 mi NW 15.0 mph 28.8 mph N/A Snow Light Snow
3:35 PM 19.4 °F 4.5 °F 10.4 °F 68% 29.60 in 2.0 mi NW 17.3 mph 25.3 mph N/A Snow Light Snow
3:55 PM - - - N/A% 29.62 in - WNW 25.3 mph - N/A   Unknown
4:15 PM 17.6 °F -1.3 °F 8.6 °F 68% 29.65 in 2.0 mi WNW 27.6 mph 32.2 mph N/A   Haze
4:35 PM 15.8 °F -1.1 °F 8.6 °F 73% 29.66 in 2.5 mi NW 19.6 mph 28.8 mph N/A Snow Light Snow
4:55 PM 14.0 °F -3.4 °F 8.6 °F 79% 29.68 in 2.0 mi WNW 19.6 mph 27.6 mph N/A   Haze
5:15 PM 14.0 °F -3.9 °F 8.6 °F 79% 29.70 in 5.0 mi WNW 20.7 mph 25.3 mph N/A   Haze
5:35 PM 14.0 °F -3.0 °F 5.0 °F 67% 29.71 in 7.0 mi WNW 18.4 mph 24.2 mph N/A   Overcast
5:55 PM 14.0 °F -1.4 °F 3.2 °F 62% 29.72 in 7.0 mi WNW 15.0 mph 26.5 mph N/A   Scattered Clouds
6:15 PM 14.0 °F 0.5 °F 3.2 °F 62% 29.73 in 10.0 mi WNW 11.5 mph 18.4 mph N/A   Mostly Cloudy
6:35 PM 14.0 °F -0.2 °F 1.4 °F 57% 29.75 in 10.0 mi WNW 12.7 mph - N/A   Mostly Cloudy
6:55 PM 12.2 °F -3.1 °F 3.2 °F 67% 29.76 in 10.0 mi WNW 13.8 mph 23.0 mph N/A   Mostly Cloudy
7:15 PM 12.2 °F -3.1 °F 1.4 °F 62% 29.77 in 10.0 mi WNW 13.8 mph - N/A   Scattered Clouds
7:35 PM 12.2 °F -1.8 °F -0.4 °F 57% 29.78 in 10.0 mi West 11.5 mph - N/A   Mostly Cloudy
7:55 PM 10.4 °F -4.8 °F -0.4 °F 62% 29.78 in 10.0 mi West 12.7 mph - N/A   Scattered Clouds
8:15 PM 10.4 °F -3.3 °F -2.2 °F 57% 29.79 in 10.0 mi West 10.4 mph - N/A   Scattered Clouds
8:35 PM 10.4 °F -4.8 °F -2.2 °F 57% 29.80 in 10.0 mi West 12.7 mph - N/A   Clear
8:55 PM 10.4 °F -5.4 °F -4.0 °F 52% 29.80 in 10.0 mi West 13.8 mph 18.4 mph N/A   Clear
9:15 PM 10.4 °F -6.0 °F -4.0 °F 52% 29.81 in 10.0 mi West 15.0 mph - N/A   Mostly Cloudy
10:15 PM 8.6 °F -8.3 °F -4.0 °F 57% 29.83 in 10.0 mi West 15.0 mph - N/A   Mostly Cloudy
10:35 PM 8.6 °F -5.5 °F -4.0 °F 57% 29.84 in 10.0 mi West 10.4 mph - N/A   Scattered Clouds
10:55 PM 8.6 °F -6.3 °F -4.0 °F 57% 29.82 in 10.0 mi WSW 11.5 mph - N/A   Clear
11:15 PM 6.8 °F -8.6 °F -4.0 °F 61% 29.82 in 10.0 mi West 11.5 mph - N/A   Clear
11:35 PM 6.8 °F -7.8 °F -2.2 °F 67% 29.83 in 10.0 mi West 10.4 mph - N/A   Clear
11:55 PM 6.8 °F -8.6 °F -2.2 °F 67% 29.83 in 10.0 mi WSW 11.5 mph - N/A   Clear